Location: North Smoke Tower Site
(30.5430°N, 82.3390°W)
Time: 10:52:45
(UTC-04:00)

Cosmos 1980 Rocket - Visible Passes

Search period start: 25 May 2016 00:00
Search period end: 04 June 2016 00:00
Orbit: 831 x 849 km, 71.0° (Epoch: 24 May)

Date Brightness Start Highest point End Pass type
(mag) Time Alt. Az. Time Alt. Az. Time Alt. Az.
25 May 4.2 02:41:21 10° N 02:45:42 22° ENE 02:47:28 19° E visible
25 May 2.8 04:24:34 10° NW 04:29:08 38° W 04:29:08 38° W visible
26 May 4.2 02:25:50 10° NNE 02:30:01 21° ENE 02:31:05 20° ENE visible
26 May 2.9 04:08:51 10° NW 04:12:46 36° WNW 04:12:46 36° WNW visible
27 May 4.3 02:10:19 10° NNE 02:14:19 20° ENE 02:14:53 19° ENE visible
27 May 3.2 03:53:08 10° NW 03:56:35 33° WNW 03:56:35 33° WNW visible
28 May 4.3 01:54:49 10° NNE 01:58:38 18° ENE 01:58:50 18° ENE visible
28 May 3.3 03:37:26 10° NNW 03:40:33 31° NW 03:40:33 31° NW visible
29 May 4.4 01:39:20 10° NNE 01:42:54 17° ENE 01:42:54 17° ENE visible
29 May 3.5 03:21:44 10° NNW 03:24:37 30° NW 03:24:37 30° NW visible
30 May 4.5 01:23:53 10° NNE 01:27:03 16° ENE 01:27:03 16° ENE visible
30 May 3.6 03:06:02 10° NNW 03:08:46 29° NW 03:08:46 29° NW visible
31 May 4.5 01:08:28 10° NNE 01:11:16 15° NE 01:11:16 15° NE visible
31 May 3.7 02:50:22 10° NNW 02:53:00 28° NW 02:53:00 28° NW visible
01 Jun 4.6 00:53:04 10° NNE 00:55:32 14° NE 00:55:32 14° NE visible
01 Jun 3.8 02:34:41 10° NNW 02:37:17 28° NNW 02:37:17 28° NNW visible
02 Jun 4.6 00:37:44 10° NNE 00:39:53 13° NE 00:39:53 13° NE visible
02 Jun 3.8 02:19:01 10° NNW 02:21:37 28° NNW 02:21:37 28° NNW visible
03 Jun 4.6 00:22:28 10° NE 00:24:16 12° NE 00:24:16 12° NE visible
03 Jun 3.8 02:03:21 10° NNW 02:06:00 29° NNW 02:06:00 29° NNW visible
